Other Surface Observations
Issued by NWS

Home | Current Version | Previous Version | Text Only | Print | Product List | Glossary On
Versions: 1 2 3 4 5 6 7 8 9 10 11 12 13 14 15 16 17 18 19 20 21 22 23 24 25 26 27 28 29 30 31 32 33 34 35 36 37 38 39 40 41 42 43 44 45 46 47 48 49 50
000
SXUS52 KTAE 300218
OSOTAE
OSOTAE
North Florida/South Alabama/Southwest Georgia Weather Roundup
National Weather Service Tallahassee Florida
1000 PM EDT SAT APR 29 2017

Note: "fair" indicates few or no clouds below 12,000 feet with no
significant weather and/or obstructions to visibility.

!FLZ017-115-028-034-025-300300
...North Florida...

CITY           SKY/WX    TMP DP  RH WIND       PRES   REMARKS
TALLAHASSEE    PTCLDY    73  68  84 CALM      30.06R
APALACHICOLA   PTCLDY    75  71  87 SW3       30.04F
PERRY          MOCLDY    76  70  79 CALM      30.08R
CROSS CITY     CLOUDY    79  72  78 N3        30.08R
JACKSONVILLE   MOCLDY    76  71  85 SE14G22   30.13R
$$

!FLZ112-006-005-002-011-300300
...Florida Panhandle...

CITY           SKY/WX    TMP DP  RH WIND       PRES   REMARKS
MARIANNA       CLEAR     76  70  82 CALM      30.05S
BONIFAY        NOT AVBL
PANAMA CITY NW FAIR      77  68  73 SE7       30.04F
TYNDALL AFB    PTCLDY    77  69  77 SE8       30.05S
TYND DRONE APT FAIR      75  70  83 SE8       30.04S
DE FUNIAK SPR  FAIR      74  70  85 SE10      30.04F
EGLIN AFB      PTCLDY    75  71  87 SE12      30.03S
DESTIN         PTCLDY    78  77  96 SE13      30.02S
HURLBURT       PTCLDY    75  71  86 SE9       30.01S
CRESTVIEW      PTCLDY    75  70  84 SE8       30.03F
PENSACOLA      CLOUDY    77  72  84 SE17G26   29.99F
$$

!ALZ063-066-300300
...South Alabama...

CITY           SKY/WX    TMP DP  RH WIND       PRES   REMARKS
DOTHAN         CLEAR     77  70  79 S12       30.08S
OZARK CAIRNS   CLEAR     77  68  73 SE7       30.04S
FT RUCKER HELI CLEAR     77  68  73 S5        30.04S
RUCKER HELI 3  FAIR      77  68  74 S7        30.03F
RUCKER HELI 2  FAIR      78  68  72 S7        30.03S
FLORALA APT    CLEAR     76  69  79 S10G20    30.04F
ANDALUSIA      CLEAR     78  69  73 VRB5      30.02S
TROY           CLEAR     75  70  84 S5        30.04R
EUFALA         FAIR      79  68  69 S7        30.04S
MOBILE         CLOUDY    77  72  84 SE21G30   29.96F
$$

!GAZ120>161-300300
...Southwest and South Central Georgia...

CITY           SKY/WX    TMP DP  RH WIND       PRES   REMARKS
THOMASVILLE    FAIR      75  72  88 CALM      30.09R
BAINBRIDGE     CLEAR     77  70  78 SE3       30.07S
MOODY AFB      CLOUDY    81  68  64 SE8       30.07S
VALDOSTA       PTCLDY    75  69  81 CALM      30.08S
MOULTRIE       MOCLDY    77  68  73 CALM      30.09R
BLAKELY        CLEAR     75  70  83 CALM      30.07R
ALBANY         PTCLDY    76  66  71 CALM      30.09S
TIFTON         FAIR      78  69  71 E6        30.09R
FITZGERALD     CLOUDY    82  71  69 SE7       30.12R
CORDELE        MOCLDY    79  68  69 CALM      30.09R
AMERICUS       FAIR      77  61  57 S3        30.10R
HOMERVILLE     FAIR      79  70  73 SE8       30.10S
$$

!GMZ750-755-770-775-300300
...Coastal and Buoy Obs...

STATION/POSITION TIME  TEMP    WIND        PRES    VSBY  WAVE
                       AIR SEA DIR/SP/G                  HT/PER
                 (UTC) (F)     (DEG/KT/KT) (MB)    (MI)  (FT/S)
KEATON BEACH     0100   79      10/  2/  3 1017.6S
CEDAR KEY        0100   81      10/  3/  4 1018.0S
C TOWER          0100   77     160/ 13/ 14 1017.5R
APALACHICOLA BUO 0050   75 75  140/  4/  6 1017.0          4/ 7
PANAMA CITY BUOY 0050   76 74  140/ 14/ 16 1016.2          6/ 8
MOBILE BUOY      0110   77 76  120/ 17/ 25 1014.0
ORANGE BCH AL BU 0050   76 75  130/ 19/ 21 1014.7          6/ 7
$$




USA.gov is the U.S. government's official web portal to all federal, state and local government web resources and services.